﻿測定場所 (Monitoring sites),日付 (Measurement date),時間 (Measurement time),線量率 最大値 (max) μGy/h,線量率 最小値 (min) μGy/h,線量率 平均値 (average) μGy/h,
八王子 (Hachioji),2015-06-07,23:01～24:00,0.0343,0.0306,0.0325,
八王子 (Hachioji),2015-06-07,22:01～23:00,0.0342,0.0307,0.0328,
八王子 (Hachioji),2015-06-07,21:01～22:00,0.0349,0.0305,0.0326,
八王子 (Hachioji),2015-06-07,20:01～21:00,0.0349,0.0298,0.0326,
八王子 (Hachioji),2015-06-07,19:01～20:00,0.0344,0.0304,0.0328,
八王子 (Hachioji),2015-06-07,18:01～19:00,0.0346,0.0308,0.0328,
八王子 (Hachioji),2015-06-07,17:01～18:00,0.0350,0.0297,0.0330,
八王子 (Hachioji),2015-06-07,16:01～17:00,0.0362,0.0310,0.0332,
八王子 (Hachioji),2015-06-07,15:01～16:00,0.0352,0.0311,0.0330,
八王子 (Hachioji),2015-06-07,14:01～15:00,0.0348,0.0307,0.0329,
八王子 (Hachioji),2015-06-07,13:01～14:00,0.0349,0.0307,0.0326,
八王子 (Hachioji),2015-06-07,12:01～13:00,0.0349,0.0306,0.0329,
八王子 (Hachioji),2015-06-07,11:01～12:00,0.0351,0.0297,0.0326,
八王子 (Hachioji),2015-06-07,10:01～11:00,0.0347,0.0311,0.0326,
八王子 (Hachioji),2015-06-07,09:01～10:00,0.0350,0.0311,0.0326,
八王子 (Hachioji),2015-06-07,08:01～09:00,0.0356,0.0305,0.0327,
八王子 (Hachioji),2015-06-07,07:01～08:00,0.0356,0.0313,0.0335,
八王子 (Hachioji),2015-06-07,06:01～07:00,0.0354,0.0314,0.0335,
八王子 (Hachioji),2015-06-07,05:01～06:00,0.0356,0.0308,0.0333,
八王子 (Hachioji),2015-06-07,04:01～05:00,0.0347,0.0311,0.0329,
八王子 (Hachioji),2015-06-07,03:01～04:00,0.0346,0.0305,0.0326,
八王子 (Hachioji),2015-06-07,02:01～03:00,0.0349,0.0306,0.0328,
八王子 (Hachioji),2015-06-07,01:01～02:00,0.0358,0.0305,0.0328,
八王子 (Hachioji),2015-06-07,00:01～01:00,0.0349,0.0298,0.0330,
八王子 (Hachioji),2015-06-06,23:01～24:00,0.0345,0.0312,0.0328,
八王子 (Hachioji),2015-06-06,22:01～23:00,0.0360,0.0309,0.0332,
八王子 (Hachioji),2015-06-06,21:01～22:00,0.0347,0.0298,0.0324,
八王子 (Hachioji),2015-06-06,20:01～21:00,0.0354,0.0306,0.0324,
八王子 (Hachioji),2015-06-06,19:01～20:00,0.0347,0.0297,0.0324,
八王子 (Hachioji),2015-06-06,18:01～19:00,0.0345,0.0308,0.0324,
八王子 (Hachioji),2015-06-06,17:01～18:00,0.0339,0.0304,0.0325,
八王子 (Hachioji),2015-06-06,16:01～17:00,0.0348,0.0310,0.0326,
八王子 (Hachioji),2015-06-06,15:01～16:00,0.0343,0.0300,0.0321,
八王子 (Hachioji),2015-06-06,14:01～15:00,0.0340,0.0301,0.0324,
八王子 (Hachioji),2015-06-06,13:01～14:00,0.0348,0.0306,0.0328,
八王子 (Hachioji),2015-06-06,12:01～13:00,0.0345,0.0306,0.0324,
八王子 (Hachioji),2015-06-06,11:01～12:00,0.0356,0.0298,0.0327,
八王子 (Hachioji),2015-06-06,10:01～11:00,0.0344,0.0304,0.0324,
八王子 (Hachioji),2015-06-06,09:01～10:00,0.0346,0.0308,0.0325,
八王子 (Hachioji),2015-06-06,08:01～09:00,0.0340,0.0304,0.0325,
八王子 (Hachioji),2015-06-06,07:01～08:00,0.0352,0.0313,0.0330,
八王子 (Hachioji),2015-06-06,06:01～07:00,0.0390,0.0325,0.0351,
八王子 (Hachioji),2015-06-06,05:01～06:00,0.0415,0.0356,0.0381,
八王子 (Hachioji),2015-06-06,04:01～05:00,0.0437,0.0371,0.0401,
八王子 (Hachioji),2015-06-06,03:01～04:00,0.0480,0.0397,0.0439,
八王子 (Hachioji),2015-06-06,02:01～03:00,0.0516,0.0419,0.0465,
八王子 (Hachioji),2015-06-06,01:01～02:00,0.0504,0.0434,0.0471,
八王子 (Hachioji),2015-06-06,00:01～01:00,0.0489,0.0419,0.0462,
八王子 (Hachioji),2015-06-05,23:01～24:00,0.0483,0.0418,0.0449,
八王子 (Hachioji),2015-06-05,22:01～23:00,0.0473,0.0409,0.0441,
八王子 (Hachioji),2015-06-05,21:01～22:00,0.0487,0.0421,0.0448,
八王子 (Hachioji),2015-06-05,20:01～21:00,0.0483,0.0413,0.0452,
八王子 (Hachioji),2015-06-05,19:01～20:00,0.0477,0.0402,0.0429,
八王子 (Hachioji),2015-06-05,18:01～19:00,0.0466,0.0394,0.0423,
八王子 (Hachioji),2015-06-05,17:01～18:00,0.0478,0.0411,0.0444,
八王子 (Hachioji),2015-06-05,16:01～17:00,0.0455,0.0362,0.0406,
八王子 (Hachioji),2015-06-05,15:01～16:00,0.0382,0.0324,0.0347,
八王子 (Hachioji),2015-06-05,14:01～15:00,0.0358,0.0319,0.0339,
八王子 (Hachioji),2015-06-05,13:01～14:00,0.0364,0.0318,0.0337,
八王子 (Hachioji),2015-06-05,12:01～13:00,0.0356,0.0321,0.0337,
八王子 (Hachioji),2015-06-05,11:01～12:00,0.0359,0.0316,0.0337,
八王子 (Hachioji),2015-06-05,10:01～11:00,0.0364,0.0320,0.0340,
八王子 (Hachioji),2015-06-05,09:01～10:00,0.0363,0.0319,0.0339,
八王子 (Hachioji),2015-06-05,08:01～09:00,0.0367,0.0325,0.0343,
八王子 (Hachioji),2015-06-05,07:01～08:00,0.0368,0.0325,0.0344,
八王子 (Hachioji),2015-06-05,06:01～07:00,0.0359,0.0325,0.0341,
八王子 (Hachioji),2015-06-05,05:01～06:00,0.0358,0.0319,0.0343,
八王子 (Hachioji),2015-06-05,04:01～05:00,0.0365,0.0320,0.0342,
八王子 (Hachioji),2015-06-05,03:01～04:00,0.0362,0.0320,0.0340,
八王子 (Hachioji),2015-06-05,02:01～03:00,0.0368,0.0320,0.0342,
八王子 (Hachioji),2015-06-05,01:01～02:00,0.0372,0.0326,0.0346,
八王子 (Hachioji),2015-06-05,00:01～01:00,0.0368,0.0318,0.0339,
八王子 (Hachioji),2015-06-04,23:01～24:00,0.0356,0.0324,0.0339,
八王子 (Hachioji),2015-06-04,22:01～23:00,0.0366,0.0320,0.0343,
八王子 (Hachioji),2015-06-04,21:01～22:00,0.0363,0.0318,0.0338,
八王子 (Hachioji),2015-06-04,20:01～21:00,0.0358,0.0319,0.0336,
八王子 (Hachioji),2015-06-04,19:01～20:00,0.0368,0.0321,0.0339,
八王子 (Hachioji),2015-06-04,18:01～19:00,0.0354,0.0315,0.0340,
八王子 (Hachioji),2015-06-04,17:01～18:00,0.0363,0.0319,0.0339,
八王子 (Hachioji),2015-06-04,16:01～17:00,0.0357,0.0322,0.0338,
八王子 (Hachioji),2015-06-04,15:01～16:00,0.0360,0.0321,0.0340,
八王子 (Hachioji),2015-06-04,14:01～15:00,0.0367,0.0322,0.0340,
八王子 (Hachioji),2015-06-04,13:01～14:00,0.0357,0.0320,0.0338,
八王子 (Hachioji),2015-06-04,12:01～13:00,0.0364,0.0317,0.0341,
八王子 (Hachioji),2015-06-04,11:01～12:00,0.0365,0.0312,0.0336,
八王子 (Hachioji),2015-06-04,10:01～11:00,0.0356,0.0305,0.0338,
八王子 (Hachioji),2015-06-04,09:01～10:00,0.0359,0.0318,0.0338,
八王子 (Hachioji),2015-06-04,08:01～09:00,0.0361,0.0322,0.0341,
八王子 (Hachioji),2015-06-04,07:01～08:00,0.0367,0.0320,0.0340,
八王子 (Hachioji),2015-06-04,06:01～07:00,0.0358,0.0327,0.0339,
八王子 (Hachioji),2015-06-04,05:01～06:00,0.0354,0.0313,0.0338,
八王子 (Hachioji),2015-06-04,04:01～05:00,0.0367,0.0317,0.0339,
八王子 (Hachioji),2015-06-04,03:01～04:00,0.0362,0.0321,0.0341,
八王子 (Hachioji),2015-06-04,02:01～03:00,0.0361,0.0322,0.0339,
八王子 (Hachioji),2015-06-04,01:01～02:00,0.0361,0.0320,0.0340,
八王子 (Hachioji),2015-06-04,00:01～01:00,0.0376,0.0320,0.0347,
八王子 (Hachioji),2015-06-03,23:01～24:00,0.0373,0.0331,0.0354,
八王子 (Hachioji),2015-06-03,22:01～23:00,0.0369,0.0326,0.0348,
八王子 (Hachioji),2015-06-03,21:01～22:00,0.0364,0.0316,0.0344,
八王子 (Hachioji),2015-06-03,20:01～21:00,0.0366,0.0318,0.0338,
八王子 (Hachioji),2015-06-03,19:01～20:00,0.0352,0.0310,0.0334,
八王子 (Hachioji),2015-06-03,18:01～19:00,0.0352,0.0313,0.0335,
八王子 (Hachioji),2015-06-03,17:01～18:00,0.0352,0.0317,0.0337,
八王子 (Hachioji),2015-06-03,16:01～17:00,0.0368,0.0311,0.0340,
八王子 (Hachioji),2015-06-03,15:01～16:00,0.0369,0.0318,0.0345,
八王子 (Hachioji),2015-06-03,14:01～15:00,0.0423,0.0333,0.0367,
八王子 (Hachioji),2015-06-03,13:01～14:00,0.0476,0.0370,0.0417,
八王子 (Hachioji),2015-06-03,12:01～13:00,0.0491,0.0391,0.0451,
八王子 (Hachioji),2015-06-03,11:01～12:00,0.0580,0.0454,0.0530,
八王子 (Hachioji),2015-06-03,10:01～11:00,0.0563,0.0440,0.0497,
八王子 (Hachioji),2015-06-03,09:01～10:00,0.0532,0.0462,0.0498,
八王子 (Hachioji),2015-06-03,08:01～09:00,0.0562,0.0485,0.0522,
八王子 (Hachioji),2015-06-03,07:01～08:00,0.0550,0.0452,0.0504,
八王子 (Hachioji),2015-06-03,06:01～07:00,0.0514,0.0428,0.0469,
八王子 (Hachioji),2015-06-03,05:01～06:00,0.0448,0.0358,0.0400,
八王子 (Hachioji),2015-06-03,04:01～05:00,0.0399,0.0338,0.0369,
八王子 (Hachioji),2015-06-03,03:01～04:00,0.0385,0.0336,0.0358,
八王子 (Hachioji),2015-06-03,02:01～03:00,0.0382,0.0322,0.0349,
八王子 (Hachioji),2015-06-03,01:01～02:00,0.0367,0.0330,0.0349,
八王子 (Hachioji),2015-06-03,00:01～01:00,0.0367,0.0333,0.0349,
八王子 (Hachioji),2015-06-02,23:01～24:00,0.0367,0.0321,0.0348,
八王子 (Hachioji),2015-06-02,22:01～23:00,0.0366,0.0324,0.0349,
八王子 (Hachioji),2015-06-02,21:01～22:00,0.0369,0.0326,0.0348,
八王子 (Hachioji),2015-06-02,20:01～21:00,0.0365,0.0324,0.0346,
八王子 (Hachioji),2015-06-02,19:01～20:00,0.0379,0.0330,0.0348,
八王子 (Hachioji),2015-06-02,18:01～19:00,0.0369,0.0324,0.0346,
八王子 (Hachioji),2015-06-02,17:01～18:00,0.0364,0.0319,0.0342,
八王子 (Hachioji),2015-06-02,16:01～17:00,0.0367,0.0325,0.0347,
八王子 (Hachioji),2015-06-02,15:01～16:00,0.0363,0.0326,0.0346,
八王子 (Hachioji),2015-06-02,14:01～15:00,0.0364,0.0321,0.0345,
八王子 (Hachioji),2015-06-02,13:01～14:00,0.0367,0.0316,0.0345,
八王子 (Hachioji),2015-06-02,12:01～13:00,0.0364,0.0328,0.0345,
八王子 (Hachioji),2015-06-02,11:01～12:00,0.0363,0.0323,0.0344,
八王子 (Hachioji),2015-06-02,10:01～11:00,0.0366,0.0322,0.0344,
八王子 (Hachioji),2015-06-02,09:01～10:00,0.0365,0.0322,0.0345,
八王子 (Hachioji),2015-06-02,08:01～09:00,0.0368,0.0330,0.0353,
八王子 (Hachioji),2015-06-02,07:01～08:00,0.0384,0.0337,0.0358,
八王子 (Hachioji),2015-06-02,06:01～07:00,0.0374,0.0335,0.0354,
八王子 (Hachioji),2015-06-02,05:01～06:00,0.0373,0.0333,0.0354,
八王子 (Hachioji),2015-06-02,04:01～05:00,0.0383,0.0336,0.0357,
八王子 (Hachioji),2015-06-02,03:01～04:00,0.0371,0.0332,0.0356,
八王子 (Hachioji),2015-06-02,02:01～03:00,0.0397,0.0336,0.0357,
八王子 (Hachioji),2015-06-02,01:01～02:00,0.0380,0.0340,0.0359,
八王子 (Hachioji),2015-06-02,00:01～01:00,0.0374,0.0322,0.0349,
八王子 (Hachioji),2015-06-01,23:01～24:00,0.0371,0.0327,0.0348,
八王子 (Hachioji),2015-06-01,22:01～23:00,0.0366,0.0325,0.0345,
八王子 (Hachioji),2015-06-01,21:01～22:00,0.0361,0.0323,0.0343,
八王子 (Hachioji),2015-06-01,20:01～21:00,0.0366,0.0324,0.0345,
八王子 (Hachioji),2015-06-01,19:01～20:00,0.0370,0.0308,0.0343,
八王子 (Hachioji),2015-06-01,18:01～19:00,0.0366,0.0326,0.0344,
八王子 (Hachioji),2015-06-01,17:01～18:00,0.0365,0.0328,0.0348,
八王子 (Hachioji),2015-06-01,16:01～17:00,0.0367,0.0319,0.0344,
八王子 (Hachioji),2015-06-01,15:01～16:00,0.0368,0.0327,0.0346,
八王子 (Hachioji),2015-06-01,14:01～15:00,0.0368,0.0331,0.0347,
八王子 (Hachioji),2015-06-01,13:01～14:00,0.0369,0.0324,0.0347,
八王子 (Hachioji),2015-06-01,12:01～13:00,0.0366,0.0330,0.0347,
八王子 (Hachioji),2015-06-01,11:01～12:00,0.0364,0.0323,0.0344,
八王子 (Hachioji),2015-06-01,10:01～11:00,0.0374,0.0327,0.0343,
八王子 (Hachioji),2015-06-01,09:01～10:00,0.0368,0.0320,0.0346,
八王子 (Hachioji),2015-06-01,08:01～09:00,0.0368,0.0331,0.0352,
八王子 (Hachioji),2015-06-01,07:01～08:00,0.0372,0.0336,0.0352,
八王子 (Hachioji),2015-06-01,06:01～07:00,0.0379,0.0335,0.0352,
八王子 (Hachioji),2015-06-01,05:01～06:00,0.0394,0.0333,0.0356,
八王子 (Hachioji),2015-06-01,04:01～05:00,0.0368,0.0330,0.0349,
八王子 (Hachioji),2015-06-01,03:01～04:00,0.0362,0.0320,0.0345,
八王子 (Hachioji),2015-06-01,02:01～03:00,0.0366,0.0324,0.0345,
八王子 (Hachioji),2015-06-01,01:01～02:00,0.0363,0.0327,0.0344,
八王子 (Hachioji),2015-06-01,00:01～01:00,0.0367,0.0314,0.0345,
